Latest Conditions
At L.F.Wade Int. Airport
Recorded at 9:55 am
Few Clouds
Temp.: 
25°C/77°F
Humidity: 
62%
Wind: 
VRB 2KT
or 2mph
UV Index: 
2
Island Observations
 
Observations
Tuesday, October 16, 2018

Observations are in local time and taken at least once an hour, or upon the start and end of specified events such as showers and thunderstorms.

Time Sky / Weather Wind Speed/Gusts Temp. R.H. Pressure
     knots (mph)  °C (°F)  %  mb / "Hg
 09:55 Few Clouds  VRB 2/0 (2/0) 25(77) 62 1023 / 30.22
 08:55 Few Clouds  VRB 1/0 (1/0) 25(77) 62 1023 / 30.22
 07:55 Few Clouds  E 1/0 (1/0) 21(69) 79 1023 / 30.21
 06:55 Few Clouds  E 2/0 (2/0) 21(70) 76 1023 / 30.20
 05:55 Few Clouds  NE 3/0 (3/0) 22(72) 72 1023 / 30.20
 04:55 Few Clouds  NE 3/0 (3/0) 23(73) 71 1022 / 30.19
 03:55 Few Clouds  NE 5/0 (6/0) 23(73) 71 1022 / 30.19
 02:55 Few Clouds  ENE 5/0 (6/0) 23(73) 71 1023 / 30.20
 01:55 Few Clouds  ENE 6/0 (7/0) 23(73) 71 1023 / 30.21
 00:55 Few Clouds  E 6/0 (7/0) 23(73) 71 1023 / 30.22
 23:55 Few Clouds  E 6/0 (7/0) 23(73) 72 1024 / 30.25
 22:55 Few Clouds  E 8/0 (9/0) 23(74) 69 1024 / 30.25
 21:55 Few Clouds  ENE 9/0 (10/0) 24(75) 68 1024 / 30.24
 20:55 Few Clouds  ENE 9/0 (10/0) 24(75) 68 1024 / 30.24
 19:55 Few Clouds  ENE 10/0 (12/0) 24(75) 70 1023 / 30.22
 18:55 Few Clouds  ENE 11/0 (13/0) 24(75) 71 1023 / 30.21
 17:55 Mostly Cloudy Showers NE 10/0 (12/0) 24(76) 74 1023 / 30.22
 17:48 Mostly Cloudy Showers NE 10/0 (12/0) 24(76) 74 1023 / 30.22
 17:31 Mostly Cloudy Showers E 12/0 (14/0) 25(77) 73 1023 / 30.21
 17:19 Mostly Cloudy Showers ENE 11/0 (13/0) 25(77) 76 1023 / 30.21
 16:55 Mostly Cloudy Showers ENE 11/0 (13/0) 25(77) 73 1023 / 30.20
 15:55 Mostly Cloudy Showers ENE 9/0 (10/0) 24(76) 74 1022 / 30.19
 15:40 Mostly Cloudy Showers E 9/0 (10/0) 24(76) 76 1022 / 30.19
 15:25 Mostly Cloudy Showers ENE 9/0 (10/0) 26(79) 68 1023 / 30.20
 14:55 Partly Cloudy Showers ENE 5/0 (6/0) 26(78) 72 1023 / 30.20
 14:08 Mostly Cloudy Showers ENE 4/0 (5/0) 26(78) 72 1023 / 30.21
 14:02 Mostly Cloudy Showers ENE 9/0 (10/0) 24(75) 81 1023 / 30.21
 13:55 Mostly Cloudy Showers E 9/0 (10/0) 24(76) 80 1023 / 30.21
 13:16 Mostly Cloudy Showers NE 10/0 (12/0) 24(75) 83 1024 / 30.23
 13:10 Mostly Cloudy Showers ENE 6/0 (7/0) 26(79) 70 1023 / 30.22
 12:55 Partly Cloudy Showers NNE 5/0 (6/0) 26(79) 65 1024 / 30.23
 11:55 Few Clouds  NNE 8/0 (9/0) 26(78) 68 1024 / 30.24
 10:55 Few Clouds  N 7/0 (8/0) 26(78) 64 1024 / 30.24
 09:55 Few Clouds  N 8/0 (9/0) 25(78) 61 1024 / 30.24
 08:55 Few Clouds  NNE 8/0 (9/0) 25(77) 61 1023 / 30.22
 07:55 Few Clouds  N 8/0 (9/0) 24(75) 65 1023 / 30.21
 06:55 Few Clouds  N 8/0 (9/0) 24(76) 66 1022 / 30.19
 05:55 Partly Cloudy  NNE 8/0 (9/0) 24(76) 66 1022 / 30.17
 04:55 Partly Cloudy  NNE 10/0 (12/0) 24(76) 63 1022 / 30.17
 03:55 Partly Cloudy  NNE 8/0 (9/0) 24(75) 68 1022 / 30.17
 02:55 Mostly Cloudy  NE 8/0 (9/0) 24(75) 71 1022 / 30.18
 01:55 Mostly Cloudy  NE 8/0 (9/0) 24(76) 71 1022 / 30.17
 00:55 Mostly Cloudy  NE 9/0 (10/0) 24(76) 73 1022 / 30.18
 23:55 Mostly Cloudy  NE 9/0 (10/0) 24(76) 74 1022 / 30.18
 22:55 Mostly Cloudy  NE 11/0 (13/0) 24(76) 74 1022 / 30.18
 21:55 Mostly Cloudy  NE 11/0 (13/0) 25(76) 72 1021 / 30.16
 20:55 Mostly Cloudy Showers NE 11/0 (13/0) 25(76) 74 1021 / 30.15
 19:55 Mostly Cloudy Showers NE 9/0 (10/0) 24(76) 81 1021 / 30.14
 19:20 Mostly Cloudy Showers ENE 11/0 (13/0) 24(75) 83 1020 / 30.12
 18:55 Mostly Cloudy Showers NE 11/0 (13/0) 24(76) 82 1020 / 30.12
 17:55 Mostly Cloudy Showers NE 11/0 (13/0) 24(76) 82 1020 / 30.11
 17:46 Mostly Cloudy Showers NE 10/0 (12/0) 26(78) 81 1020 / 30.11
 17:40 Mostly Cloudy Showers ENE 11/0 (13/0) 26(79) 79 1020 / 30.11
 16:55 Mostly Cloudy  ENE 12/0 (14/0) 25(76) 80 1019 / 30.09
 15:55 Mostly Cloudy Showers ENE 12/0 (14/0) 25(76) 86 1019 / 30.08
 15:30 Mostly Cloudy Showers NE 12/0 (14/0) 24(75) 85 1019 / 30.08
 14:55 Mostly Cloudy Showers NE 13/0 (15/0) 24(75) 89 1019 / 30.09
 13:55 Mostly Cloudy Showers NE 12/0 (14/0) 23(73) 88 1019 / 30.09
 13:02 Overcast Showers NNE 14/0 (16/0) 23(73) 90 1020 / 30.11
 12:55 Mostly Cloudy Showers NNE 15/0 (17/0) 24(75) 86 1019 / 30.10
 12:30 Mostly Cloudy Showers NNE 13/0 (15/0) 24(75) 86 1019 / 30.10
 11:55 Mostly Cloudy  NNE 11/0 (13/0) 25(78) 82 1019 / 30.09
 10:55 Mostly Cloudy Showers NE 11/0 (13/0) 26(78) 81 1019 / 30.09
 10:36 Mostly Cloudy Showers ENE 12/0 (14/0) 25(77) 84 1019 / 30.09
 10:27 Mostly Cloudy Showers N 8/0 (9/0) 24(75) 91 1019 / 30.08
 09:55 Mostly Cloudy  NNE 9/0 (10/0) 24(76) 90 1018 / 30.07
 09:28 Mostly Cloudy  NE 12/0 (14/0) 24(76) 92 1018 / 30.05
 08:55 Mostly Cloudy Showers N 8/0 (9/0) 24(75) 93 1017 / 30.04
 08:41 Mostly Cloudy Showers N 8/0 (9/0) 24(75) 91 1017 / 30.04
 07:55 Mostly Cloudy Showers WNW 6/0 (7/0) 24(75) 93 1017 / 30.02
 07:37 Mostly Cloudy Showers NW 6/0 (7/0) 26(79) 86 1017 / 30.02
 07:15 Overcast Showers W 8/0 (9/0) 23(74) 91 1017 / 30.02
 06:55 Overcast Showers WSW 18/0 (21/0) 23(73) 97 1017 / 30.02
 06:38 Overcast Showers WSW 18/28 (21/32) 23(73) 96 1017 / 30.03
 06:12 Overcast Showers WSW 19/0 (22/0) 24(74) 94 1016 / 30.01
 06:04 Overcast Showers WSW 19/0 (22/0) 24(74) 94 1016 / 30.01
 05:55 Overcast Showers WSW 11/0 (13/0) 24(75) 92 1016 / 30.00
 05:45 Overcast Showers WSW 10/0 (12/0) 24(75) 92 1016 / 30.00
 04:55 Overcast Showers W 16/0 (18/0) 23(74) 95 1015 / 29.98
 04:31 Mostly Cloudy Showers W 20/32 (23/37) 24(75) 94 1015 / 29.97
 04:21 Overcast Showers WSW 13/0 (15/0) 24(75) 94 1015 / 29.98
 03:55 Overcast Showers WSW 21/0 (24/0) 24(75) 86 1015 / 29.97
 03:34 Overcast Showers WSW 22/0 (25/0) 24(74) 94 1016 / 29.99
 03:25 Overcast Showers SW 18/0 (21/0) 26(78) 91 1015 / 29.98
 02:55 Mostly Cloudy Showers SW 19/0 (22/0) 26(79) 88 1015 / 29.97
 02:20 Mostly Cloudy Showers WSW 15/0 (17/0) 24(76) 74 1015 / 29.98
 01:55 Mostly Cloudy Showers SW 21/0 (24/0) 26(80) 86 1015 / 29.98
 00:55 Mostly Cloudy Showers SW 19/0 (22/0) 26(80) 86 1015 / 29.98
 23:55 Mostly Cloudy  SW 17/0 (20/0) 26(80) 85 1016 / 29.99
 22:55 Mostly Cloudy  SSW 19/0 (22/0) 26(80) 85 1015 / 29.98
 21:55 Mostly Cloudy  SW 19/0 (22/0) 26(80) 86 1015 / 29.98
 20:55 Mostly Cloudy  SSW 20/0 (23/0) 26(80) 84 1015 / 29.96
 19:55 Mostly Cloudy  SSW 17/0 (20/0) 26(80) 84 1014 / 29.95
 18:55 Mostly Cloudy  SW 18/0 (21/0) 27(80) 81 1014 / 29.95
 17:55 Mostly Cloudy  SW 17/0 (20/0) 27(81) 78 1014 / 29.94
 16:55 Mostly Cloudy  SW 19/0 (22/0) 28(82) 77 1013 / 29.92
 15:55 Mostly Cloudy  SW 17/0 (20/0) 27(81) 74 1013 / 29.92
 14:55 Mostly Cloudy  SW 22/0 (25/0) 28(82) 69 1014 / 29.93
 13:55 Mostly Cloudy  SW 22/0 (25/0) 28(83) 70 1014 / 29.93
 12:55 Mostly Cloudy  SSW 20/0 (23/0) 28(83) 72 1014 / 29.94
Island AWOS